{"data":{"norad_id":44071,"intl_designator":"2019-014A","name":"WGS 10 (USA 291)","alt_names":[],"object_type":"PAYLOAD","status":"ACTIVE","operator":null,"country":"US","launch_date":"2019-03-16","launch_site_code":"AFETR","launch_vehicle":null,"mission":null,"orbit_class":"UNKNOWN","rcs_meters":null,"size_class":null,"mass_kg":null,"dimensions":null,"purposes":["comms"],"wikipedia_slug":null,"has_3d_model":false,"image_url":null,"decayed_at":null,"tle_current":{"epoch":"2026-09-19T03:34:22.344672Z","epoch_age_seconds":138631,"freshness":"FRESH","line1":"1 44071U 19014A   26262.14886973  .00000042  00000+0  00000+0 0  9999","line2":"2 44071   0.0060 164.8138 0000332 275.5666  31.5857  1.00272625 27564","mean_motion":1.00272625,"eccentricity":3.32e-5,"inclination_deg":0.006,"raan_deg":164.8138,"arg_perigee_deg":275.5666,"mean_anomaly_deg":31.5857,"bstar":0,"rev_number":2756,"period_min":1436.0848736133,"perigee_km":35784.959619059,"apogee_km":35787.759341625,"semimajor_km":42164.496480342,"source":"CELESTRAK","updated_at":"2026-09-20T09:00:35.266140Z"}}}